GW6058 Weather Reports


time (UTC)temp
C
wind
direction
speed
KPH
gust
KPH
rain 1hr
cm
rain 24hr
cm
rain mn
cm
humidity
%
barometer
mb
20260506191434 31 252 8.0 17.7 0.00 0.00 0.00 44
20260506190931 31 239 4.8 9.7 0.00 0.00 0.00 45
20260506190428 31 279 6.4 9.7 0.00 0.00 0.00 45
20260506185924 31 182 9.7 16.1 0.00 0.00 0.00 46
20260506185422 31 263 9.7 14.5 0.00 0.00 0.00 45
20260506184919 31 256 8.0 17.7 0.00 0.00 0.00 47
20260506184416 31 221 11.3 14.5 0.00 0.00 0.00 46
20260506183913 30 250 4.8 9.7 0.00 0.00 0.00 47
20260506183408 31 193 6.4 12.9 0.00 0.00 0.00 48
20260506182906 31 274 4.8 11.3 0.00 0.00 0.00 47
20260506182403 30 210 9.7 12.9 0.00 0.00 0.00 46
20260506181900 30 247 6.4 9.7 0.00 0.00 0.00 47
20260506181358 30 237 14.5 16.1 0.00 0.00 0.00 47
20260506180855 30 279 4.8 11.3 0.00 0.00 0.00 48
20260506180351 31 264 9.7 12.9 0.00 0.00 0.00 47
20260506175847 30 219 4.8 6.4 0.00 0.00 0.00 48
20260506175344 30 245 6.4 11.3 0.00 0.00 0.00 50
20260506174841 31 304 6.4 12.9 0.00 0.00 0.00 47
20260506174338 31 187 3.2 12.9 0.00 0.00 0.00 47
20260506173836 30 268 6.4 11.3 0.00 0.00 0.00 50
20260506173332 30 223 4.8 14.5 0.00 0.00 0.00 46
20260506172830 30 249 8.0 11.3 0.00 0.00 0.00 46
20260506172326 30 216 3.2 11.3 0.00 0.00 0.00 49
20260506171824 30 291 6.4 9.7 0.00 0.00 0.00 50
20260506171321 30 229 8.0 11.3 0.00 0.00 0.00 49
20260506170818 29 208 4.8 11.3 0.00 0.00 0.00 50
20260506170314 29 277 4.8 14.5 0.00 0.00 0.00 51
20260506165814 29 305 6.4 14.5 0.00 0.00 0.00 51
20260506165310 29 170 6.4 24.1 0.00 0.00 0.00 52
20260506164807 29 179 8.0 14.5 0.00 0.00 0.00 52
20260506164304 29 257 9.7 16.1 0.00 0.00 0.00 53
20260506163801 28 253 4.8 11.3 0.00 0.00 0.00 53
20260506163255 28 240 9.7 17.7 0.00 0.00 0.00 53
20260506162751 29 260 8.0 14.5 0.00 0.00 0.00 53
20260506162250 28 265 4.8 9.7 0.00 0.00 0.00 56
20260506161747 28 230 4.8 11.3 0.00 0.00 0.00 56
20260506161244 28 242 9.7 14.5 0.00 0.00 0.00 53
20260506160741 28 251 8.0 11.3 0.00 0.00 0.00 55
20260506160238 28 290 6.4 14.5 0.00 0.00 0.00 58
20260506155737 27 227 4.8 11.3 0.00 0.00 0.00 57
20260506155233 27 268 8.0 14.5 0.00 0.00 0.00 58
20260506153340 27 167 3.2 16.1 0.00 0.00 0.00 62
20260506152837 27 172 8.0 12.9 0.00 0.00 0.00 60
20260506152334 27 141 1.6 6.4 0.00 0.00 0.00 61
20260506151833 26 289 3.2 11.3 0.00 0.00 0.00 62
20260506151329 27 278 6.4 12.9 0.00 0.00 0.00 60
20260506150827 26 230 11.3 14.5 0.00 0.00 0.00 61
20260506150323 26 260 6.4 14.5 0.00 0.00 0.00 64
20260506145820 26 271 6.4 11.3 0.00 0.00 0.00 64
20260506145316 26 222 8.0 9.7 0.00 0.00 0.00 65
20260506144814 26 183 9.7 14.5 0.00 0.00 0.00 66
20260506144310 26 152 6.4 14.5 0.00 0.00 0.00 65
20260506143809 25 201 6.4 11.3 0.00 0.00 0.00 67
20260506143305 25 227 8.0 11.3 0.00 0.00 0.00 67
20260506142804 25 201 4.8 12.9 0.00 0.00 0.00 67
20260506142301 25 253 12.9 14.5 0.00 0.00 0.00 67
20260506141759 25 202 6.4 14.5 0.00 0.00 0.00 68
20260506141258 25 191 3.2 12.9 0.00 0.00 0.00 69
20260506140755 25 230 6.4 9.7 0.00 0.00 0.00 68
20260506140252 25 240 6.4 9.7 0.00 0.00 0.00 69
20260506135749 25 207 3.2 6.4 0.00 0.00 0.00 69
20260506135245 24 220 6.4 6.4 0.00 0.00 0.00 70
20260506134742 23 205 4.8 9.7 0.00 0.00 0.00 71
20260506134238 23 242 8.0 11.3 0.00 0.00 0.00 71
20260506133736 23 229 4.8 11.3 0.00 0.00 0.00 72
20260506133232 23 273 4.8 9.7 0.00 0.00 0.00 72
20260506132729 22 226 3.2 6.4 0.00 0.00 0.00 73
20260506132226 22 158 8.0 11.3 0.00 0.00 0.00 73
20260506131724 22 263 4.8 9.7 0.00 0.00 0.00 75
20260506131220 22 108 9.7 12.9 0.00 0.00 0.00 74
20260506130717 21 290 3.2 3.2 0.00 0.00 0.00 77
20260506130214 21 165 3.2 9.7 0.00 0.00 0.00 77
20260506125712 21 187 4.8 4.8 0.00 0.00 0.00 78
20260506125209 20 266 1.6 4.8 0.00 0.00 0.00 79
20260506124707 20 190 1.6 4.8 0.00 0.00 0.00 79
20260506124205 20 224 0.0 4.8 0.00 0.00 0.00 80
20260506123702 20 188 3.2 6.4 0.00 0.00 0.00 80
20260506123201 19 235 3.2 3.2 0.00 0.00 0.00 82
20260506122657 19 172 1.6 6.4 0.00 0.00 0.00 83
20260506122155 18 184 1.6 3.2 0.00 0.00 0.00 83
20260506121652 18 175 3.2 3.2 0.00 0.00 0.00 84
20260506121148 18 181 1.6 4.8 0.00 0.00 0.00 85
20260506120647 18 206 3.2 3.2 0.00 0.00 0.00 85
20260506120143 17 172 0.0 3.2 0.00 0.00 0.00 86
20260506115642 17 185 0.0 3.2 0.00 0.00 0.00 87
20260506115140 17 113 0.0 1.6 0.00 0.00 0.00 88
20260506114637 17 174 0.0 1.6 0.00 0.00 0.00 89
20260506114135 17 186 0.0 4.8 0.00 0.00 0.00 90
20260506113633 16 123 0.0 3.2 0.00 0.00 0.00 91
20260506113130 16 117 0.0 1.6 0.00 0.00 0.00 92
20260506112626 16 115 0.0 0.0 0.00 0.00 0.00 92
20260506112124 16 115 1.6 1.6 0.00 0.00 0.00 93
20260506111621 16 115 0.0 0.0 0.00 0.00 0.00 93
20260506111119 16 115 0.0 0.0 0.00 0.00 0.00 93
20260506110616 16 115 0.0 0.0 0.00 0.00 0.00 93
20260506110113 16 114 0.0 1.6 0.00 0.00 0.00 93
20260506105609 16 96 0.0 0.0 0.00 0.00 0.00 94
20260506105107 16 122 1.6 1.6 0.00 0.00 0.00 95
20260506104605 16 109 0.0 1.6 0.00 0.00 0.00 95
20260506104102 16 120 0.0 0.0 0.00 0.00 0.00 95
20260506103559 16 100 1.6 3.2 0.00 0.00 0.00 95
20260506103056 16 105 1.6 1.6 0.00 0.00 0.00 95
20260506102554 16 122 0.0 0.0 0.00 0.00 0.00 94
20260506102051 16 128 0.0 0.0 0.00 0.00 0.00 94
20260506101548 16 129 0.0 0.0 0.00 0.00 0.00 94
20260506101045 16 129 0.0 1.6 0.00 0.00 0.00 94
20260506100543 16 142 0.0 0.0 0.00 0.00 0.00 94
20260506100041 16 137 0.0 0.0 0.00 0.00 0.00 93
20260506095540 16 144 0.0 0.0 0.00 0.00 0.00 93
20260506095036 16 144 0.0 0.0 0.00 0.00 0.00 93
20260506094533 17 151 0.0 0.0 0.00 0.00 0.00 93
20260506094031 17 152 0.0 0.0 0.00 0.00 0.00 93
20260506093529 17 150 0.0 0.0 0.00 0.00 0.00 93
20260506093026 17 120 0.0 3.2 0.00 0.00 0.00 93
20260506092524 17 186 0.0 0.0 0.00 0.00 0.00 93
20260506092020 17 201 0.0 1.6 0.00 0.00 0.00 93
20260506091519 17 177 0.0 1.6 0.00 0.00 0.00 93
20260506091016 17 134 0.0 1.6 0.00 0.00 0.00 92
20260506090514 17 126 0.0 1.6 0.00 0.00 0.00 92
20260506090010 17 155 0.0 1.6 0.00 0.00 0.00 92
20260506085507 17 149 0.0 1.6 0.00 0.00 0.00 92
20260506085003 17 131 0.0 1.6 0.00 0.00 0.00 92
20260506084500 17 131 0.0 1.6 0.00 0.00 0.00 92
20260506083956 17 152 1.6 3.2 0.00 0.00 0.00 93
20260506083453 17 125 0.0 1.6 0.00 0.00 0.00 92
20260506082950 17 127 1.6 1.6 0.00 0.00 0.00 92
20260506082447 17 134 0.0 0.0 0.00 0.00 0.00 92
20260506081943 17 151 0.0 0.0 0.00 0.00 0.00 91
20260506081442 17 153 0.0 0.0 0.00 0.00 0.00 91
20260506080939 17 143 0.0 0.0 0.00 0.00 0.00 91
20260506080436 17 130 0.0 1.6 0.00 0.00 0.00 91
20260506073420 17 217 1.6 3.2 0.00 0.00 0.00 90
20260506072917 17 107 1.6 3.2 0.00 0.00 0.00 90
20260506072414 17 108 1.6 1.6 0.00 0.00 0.00 89
20260506071912 17 128 0.0 1.6 0.00 0.00 0.00 89
20260506071410 17 135 0.0 0.0 0.00 0.00 0.00 89
20260506070906 17 126 0.0 0.0 0.00 0.00 0.00 88
20260506070403 17 120 0.0 0.0 0.00 0.00 0.00 87
20260506062340 18 134 0.0 1.6 0.00 0.00 0.00 84
20260506061836 18 181 0.0 1.6 0.00 0.00 0.00 84
20260506061333 18 207 0.0 3.2 0.00 0.00 0.00 84
20260506060831 18 111 0.0 0.0 0.00 0.00 0.00 83
20260506060329 18 161 3.2 3.2 0.00 0.00 0.00 84
20260506051300 18 153 0.0 3.2 0.00 0.00 0.00 80
20260506050759 18 121 0.0 1.6 0.00 0.00 0.00 79
20260506050256 18 97 0.0 6.4 0.00 0.00 0.00 79
20260506044746 18 98 1.6 4.8 0.00 0.00 0.00 82
20260506044243 18 101 0.0 0.0 0.00 0.00 0.00 81
20260506043741 18 112 0.0 1.6 0.00 0.00 0.00 81
20260506043238 18 119 0.0 0.0 0.00 0.00 0.00 79
20260506042737 19 120 0.0 0.0 0.00 0.00 0.00 78
20260506042235 19 120 0.0 1.6 0.00 0.00 0.00 77
20260506041733 19 130 0.0 0.0 0.00 0.00 0.00 77
20260506041230 20 139 0.0 0.0 0.00 0.00 0.00 75
20260506040727 20 141 0.0 1.6 0.00 0.00 0.00 74
20260506040224 20 207 0.0 0.0 0.00 0.00 0.00 73
20260506035721 20 222 3.2 3.2 0.00 0.00 0.00 74
20260506035218 20 249 0.0 1.6 0.00 0.00 0.00 73
20260506034714 20 253 0.0 3.2 0.00 0.00 0.00 74
20260506034212 20 190 0.0 0.0 0.00 0.00 0.00 74
20260506033709 20 200 0.0 0.0 0.00 0.00 0.00 73
20260506033206 20 201 0.0 0.0 0.00 0.00 0.00 72
20260506032703 20 214 0.0 1.6 0.00 0.00 0.00 71
20260506032200 21 202 0.0 0.0 0.00 0.00 0.00 71
20260506031657 21 225 0.0 1.6 0.00 0.00 0.00 70
20260506031154 21 229 1.6 3.2 0.00 0.00 0.00 70
20260506030652 21 212 0.0 0.0 0.00 0.00 0.00 69
20260506030149 21 216 0.0 0.0 0.00 0.00 0.00 69
20260506025646 21 234 0.0 1.6 0.00 0.00 0.00 68
20260506025142 21 218 0.0 0.0 0.00 0.00 0.00 68
20260506024640 21 228 1.6 1.6 0.00 0.00 0.00 67
20260506024136 21 212 0.0 0.0 0.00 0.00 0.00 67
20260506023632 22 210 0.0 1.6 0.00 0.00 0.00 66
20260506023129 22 275 1.6 3.2 0.00 0.00 0.00 65
20260506022627 22 252 0.0 1.6 0.00 0.00 0.00 65
20260506022124 22 226 0.0 1.6 0.00 0.00 0.00 64
20260506021622 22 206 1.6 3.2 0.00 0.00 0.00 64
20260506021119 22 236 3.2 3.2 0.00 0.00 0.00 64
20260506020616 22 246 0.0 0.0 0.00 0.00 0.00 63
20260506020113 22 206 0.0 3.2 0.00 0.00 0.00 63
20260506015611 22 203 0.0 0.0 0.00 0.00 0.00 62
20260506015107 22 223 0.0 1.6 0.00 0.00 0.00 62
20260506014605 22 236 1.6 1.6 0.00 0.00 0.00 62
20260506014100 22 234 0.0 0.0 0.00 0.00 0.00 62
20260506013559 22 234 0.0 0.0 0.00 0.00 0.00 60
20260506013055 23 240 1.6 3.2 0.00 0.00 0.00 59
20260506012551 23 235 0.0 0.0 0.00 0.00 0.00 58
20260506012048 23 270 1.6 3.2 0.00 0.00 0.00 57
20260506011546 23 253 0.0 1.6 0.00 0.00 0.00 57
20260506011042 23 270 1.6 3.2 0.00 0.00 0.00 58
20260506010542 23 235 0.0 1.6 0.00 0.00 0.00 56
20260506010038 23 237 1.6 1.6 0.00 0.00 0.00 56
20260506005535 24 266 0.0 3.2 0.00 0.00 0.00 55
20260506005031 24 284 1.6 4.8 0.00 0.00 0.00 55
20260506004528 24 223 0.0 3.2 0.00 0.00 0.00 55
20260506004025 24 225 0.0 1.6 0.00 0.00 0.00 54
20260506003521 25 232 1.6 4.8 0.00 0.00 0.00 53
20260506003017 25 212 0.0 3.2 0.00 0.00 0.00 54
20260506002514 25 223 3.2 6.4 0.00 0.00 0.00 52
20260506002009 25 215 0.0 1.6 0.00 0.00 0.00 51
20260506001506 25 278 4.8 9.7 0.00 0.00 0.00 51
20260506001003 26 264 1.6 4.8 0.00 0.00 0.00 50
20260506000500 26 232 3.2 3.2 0.00 0.00 0.00 50
20260505235957 26 226 3.2 4.8 0.00 0.00 0.00 49
20260505235456 26 280 3.2 6.4 0.00 0.00 0.00 48
20260505234952 27 240 4.8 9.7 0.00 0.00 0.00 47
20260505234450 27 268 1.6 6.4 0.00 0.00 0.00 46
20260505233946 27 230 6.4 9.7 0.00 0.00 0.00 46
20260505233444 27 283 3.2 9.7 0.00 0.00 0.00 46
20260505232941 27 271 4.8 4.8 0.00 0.00 0.00 46
20260505232439 27 250 3.2 9.7 0.00 0.00 0.00 45
20260505231936 27 252 4.8 11.3 0.00 0.00 0.00 45
20260505231433 28 221 4.8 9.7 0.00 0.00 0.00 44
20260505230931 28 220 1.6 4.8 0.00 0.00 0.00 43
20260505230429 28 231 6.4 6.4 0.00 0.00 0.00 43
20260505225925 28 261 3.2 4.8 0.00 0.00 0.00 44
20260505225422 28 192 6.4 9.7 0.00 0.00 0.00 43
20260505224918 28 134 1.6 4.8 0.00 0.00 0.00 44
20260505224415 28 103 3.2 4.8 0.00 0.00 0.00 43
20260505223912 28 160 1.6 4.8 0.00 0.00 0.00 43
20260505223409 28 189 3.2 4.8 0.00 0.00 0.00 43
20260505222905 28 267 3.2 6.4 0.00 0.00 0.00 43
20260505222401 28 270 6.4 11.3 0.00 0.00 0.00 42
20260505221858 28 272 4.8 9.7 0.00 0.00 0.00 42
20260505221355 28 264 1.6 1.6 0.00 0.00 0.00 43
20260505220852 27 214 0.0 4.8 0.00 0.00 0.00 45
20260505220349 28 225 3.2 9.7 0.00 0.00 0.00 42
20260505215847 28 206 1.6 6.4 0.00 0.00 0.00 41
20260505215344 28 193 1.6 6.4 0.00 0.00 0.00 41
20260505214842 28 261 3.2 4.8 0.00 0.00 0.00 41
20260505214340 28 297 1.6 4.8 0.00 0.00 0.00 41
20260505213836 28 250 4.8 9.7 0.00 0.00 0.00 39
20260505213335 28 219 3.2 4.8 0.00 0.00 0.00 40
20260505212830 28 229 1.6 3.2 0.00 0.00 0.00 41
20260505212328 28 285 4.8 6.4 0.00 0.00 0.00 40
20260505211823 28 142 3.2 4.8 0.00 0.00 0.00 41
20260505211321 28 229 1.6 4.8 0.00 0.00 0.00 41
20260505210817 30 268 6.4 6.4 0.00 0.00 0.00 39
20260505210314 29 298 0.0 4.8 0.00 0.00 0.00 40
20260505205811 29 251 1.6 3.2 0.00 0.00 0.00 42
20260505205310 30 304 4.8 6.4 0.00 0.00 0.00 37
20260505204806 30 206 1.6 6.4 0.00 0.00 0.00 39
20260505204304 30 225 6.4 12.9 0.00 0.00 0.00 39
20260505203801 30 257 9.7 11.3 0.00 0.00 0.00 39
20260505203258 30 253 4.8 6.4 0.00 0.00 0.00 37
20260505202754 30 267 8.0 12.9 0.00 0.00 0.00 38
20260505202250 30 319 1.6 4.8 0.00 0.00 0.00 40
20260505201747 29 264 4.8 16.1 0.00 0.00 0.00 38
20260505201244 29 223 4.8 6.4 0.00 0.00 0.00 39
20260505200743 29 171 3.2 11.3 0.00 0.00 0.00 38
20260505200240 30 169 11.3 17.7 0.00 0.00 0.00 38
20260505195734 28 223 3.2 4.8 0.00 0.00 0.00 40
20260505195233 28 279 3.2 9.7 0.00 0.00 0.00 40
20260505194730 29 156 6.4 11.3 0.00 0.00 0.00 39
20260505194226 29 144 6.4 11.3 0.00 0.00 0.00 41
20260505193722 29 238 4.8 9.7 0.00 0.00 0.00 40
20260505193219 29 202 1.6 4.8 0.00 0.00 0.00 42
20260505192718 29 321 3.2 6.4 0.00 0.00 0.00 41
20260505192215 29 149 6.4 12.9 0.00 0.00 0.00 38